CYOWMDPP

Guest
Details From CYOW - Ottawa Macdonald Cartier Intl
To MDPP - Puerto Plata Gregorio Luperon Intl
Flight Number -
Tags Generated
Created
Modified
Stats Distance 1,557 nm / 2,883 km
Max Altitude 0 ft / 0 m
Waypoints 4
Social Downloads 0
Likes 0
Share VATSIM

Download

Looking for another format? Having issues loading an existing format? Contact us
Advertisement - Login to hide

Notes

Generated

Route

CYOW FEHDU PIVAN MDPP

ID Type Via Altitude Latitude Longitude Leg Dist Tot Dist Heading (true) Name
O CYOW APT - 0 ft / 0 m 45.32611˚ -75.68903˚ - 0 nm - -
FEHDU FIX - 0 ft / 0 m 41.62819˚ -74.72108˚ 226 nm 226 nm 169° / 170° -
PIVAN FIX - 0 ft / 0 m 19.95225˚ -70.62894˚ 1318 nm 1544 nm 170° / 172° -
O MDPP APT - 0 ft / 0 m 19.75384˚ -70.58409˚ 12 nm 1556 nm 168° / 168° -

Altitude Profile

Advertisement - Login to hide

Weather


0- 5 10 15 20 25 30 35+ Temperature / ° C

Clouds and Precipitation
Forecast for 2018-05-26 18:00 UTC. Updated 3 hours ago

Ground ~20,000 ft ~40,000 ft Winds

CYOW

Details ICAO CYOW (YOW)
Name Ottawa Macdonald Cartier Intl
Region Canada
Timezone America/Toronto (UTC-4.0)
Stats Elevation 374 ft / 114 m (AMSL)
Location 45.322817° -75.671438°
Runways 3
Magnetic Variation 13.223° W

METAR

CYOW 262000Z 12005KT 15SM -RA OVC034 20/19 A2985 RMK SC8 SLP110 DENSITY ALT 1200FT

Decode

TAF

TAF TAF AMD CYOW 261929Z 2619/2718 11008KT P6SM SCT025 BKN070 TEMPO 2619/2622 5SM -SHRA BR BKN020 OVC070 PROB30 2619/2622 VRB15G25KT 2SM TSRA BR BKN015 OVC030CB FM262200 08010KT P6SM SCT040 BKN160 FM271300 09010KT P6SM -SHRA SCT020 BKN080 PROB30 2713/2715 2SM TSRA BR BKN020 OVC060CB FM271600 08012KT P6SM SCT020 BKN080 RMK NXT FCST BY 262100Z

Decode

Departure Runways

ID Width Length Bearing (true) Bearing (mag) Surface Threshold Offset Overrun Length
04 75 ft / 23 m 3,304 ft / 1,007 m 25.50° 38.72° Asphalt 0 ft / 0 m 0 ft / 0 m
07 200 ft / 61 m 8,011 ft / 2,442 m 57.16° 70.38° Asphalt 0 ft / 0 m 150 ft / 46 m
14 200 ft / 61 m 9,978 ft / 3,041 m 126.44° 139.66° Asphalt 0 ft / 0 m 150 ft / 46 m
22 75 ft / 23 m 3,304 ft / 1,007 m 205.50° 218.72° Asphalt 0 ft / 0 m 0 ft / 0 m
25 200 ft / 61 m 8,011 ft / 2,442 m 237.18° 250.40° Asphalt 0 ft / 0 m 155 ft / 47 m
32 200 ft / 61 m 9,978 ft / 3,041 m 306.46° 319.68° Asphalt 0 ft / 0 m 150 ft / 46 m

MDPP

Details ICAO MDPP (POP)
Name Puerto Plata Gregorio Luperon Intl
Region Dominican Republic
Timezone America/Santo_Domingo (UTC-4.0)
Stats Elevation 15 ft / 5 m (AMSL)
Location 19.757900° -70.570035°
Runways 1
Magnetic Variation 11.259° W

METAR

MDPP 262000Z 09008KT 9999 FEW020 30/25 Q1012

Decode

TAF

Not found

Destination Runways

ID Width Length Bearing (true) Bearing (mag) Surface Threshold Offset Overrun Length
08 151 ft / 46 m 10,101 ft / 3,079 m 72.95° 84.21° Asphalt 0 ft / 0 m 0 ft / 0 m
26 151 ft / 46 m 10,101 ft / 3,079 m 252.95° 264.21° Asphalt 0 ft / 0 m 0 ft / 0 m

Popular Alternatives